Torna al catalogo

STARLINK-31860

AttivoComunicazioniVLEO
NORAD 59670·PAYLOAD·🇺🇸 United States

Lanciato May 6, 2024 da Cape Canaveral Space Force Station

Loading…

Prossimi Passaggi (prossime 24 ore)

TLE

AggiornatoSource: CelesTrak SupGP

Epoca: Sep 15, 2026, 02:21 UTC

1 59670C 24084S   26258.09840278 -.00029628  00000+0 -10726-2 0  2580
2 59670  43.0012  48.6431 0001430 277.3295 342.3373 15.27610382    19

Traccia STARLINK-31860 in tempo reale con AllMySat

Download on the App Store